Location: New Canada
(47.1017°N, 68.5042°W)
Time: 05:14:26
(UTC+00:00)

CUBEBUG 2 - Visible Passes

Search period start: 23 March 2023 00:00
Search period end: 02 April 2023 00:00
Orbit: 581 x 686 km, 97.8° (Epoch: 22 March)

Date Brightness Start Highest point End Pass type
(mag) Time Alt. Az. Time Alt. Az. Time Alt. Az.
23 Mar ? 06:38:34 10° NNE 06:40:52 25° NE 06:40:52 25° NE visible
23 Mar ? 08:15:15 10° N 08:18:19 26° NW 08:18:19 26° NW visible
24 Mar ? 06:59:45 10° NNE 07:02:36 35° NNE 07:02:36 35° NNE visible
24 Mar ? 08:37:10 10° NNW 08:40:03 18° NW 08:40:03 18° NW visible
25 Mar ? 05:46:45 10° ENE 05:46:52 10° ENE 05:46:52 10° ENE visible
25 Mar ? 07:21:05 10° NNE 07:24:19 44° N 07:24:19 44° N visible
25 Mar ? 08:59:32 10° NNW 09:01:25 12° WNW 09:01:46 12° WNW visible
26 Mar ? 06:06:57 10° NE 06:08:35 16° ENE 06:08:35 16° ENE visible
26 Mar ? 07:42:31 10° N 07:46:02 42° NNW 07:46:02 42° NNW visible
27 Mar ? 06:27:45 10° NNE 06:30:16 25° ENE 06:30:16 25° ENE visible
27 Mar ? 08:04:06 10° N 08:07:43 32° NW 08:07:43 32° NW visible
28 Mar ? 06:48:48 10° NNE 06:51:57 37° NE 06:51:57 37° NE visible
28 Mar ? 08:25:49 10° NNW 08:29:24 22° WNW 08:29:24 22° WNW visible
29 Mar ? 07:10:01 10° NNE 07:13:37 52° NNE 07:13:37 52° NNE visible
29 Mar ? 08:47:51 10° NNW 08:50:29 15° WNW 08:51:03 15° WNW visible
30 Mar ? 05:56:19 10° NE 05:57:49 14° ENE 05:57:49 14° ENE visible
30 Mar ? 07:31:21 10° N 07:35:16 55° NNW 07:35:16 55° NNW visible
31 Mar ? 06:16:50 10° NE 06:19:28 22° ENE 06:19:28 22° ENE visible
31 Mar ? 07:52:48 10° N 07:56:54 41° WNW 07:56:54 41° WNW visible
01 Apr ? 06:37:43 10° NNE 06:41:05 34° ENE 06:41:05 34° ENE visible
01 Apr ? 08:14:23 10° N 08:18:19 27° WNW 08:18:31 27° WNW visible
